Regional Weather Roundup
Issued by NWS

Home | Current Version | Previous Version | Text Only | Print | Product List | Glossary Off
Versions: 1 2 3 4 5 6 7 8 9 10 11 12 13 14 15 16 17 18 19 20 21 22 23 24 25 26 27 28 29 30 31 32 33 34 35 36 37 38 39 40 41 42 43 44 45 46 47 48 49 50

000
ASUS43 KLOT 230106
RWRIL

ILLINOIS REGIONAL WEATHER ROUNDUP
NATIONAL WEATHER SERVICE CHICAGO/ROMEOVILLE IL
700 PM CST SAT NOV 22 2014

NOTE: "FAIR" INDICATES FEW OR NO CLOUDS BELOW 12,000 FEET WITH NO
SIGNIFICANT WEATHER AND/OR OBSTRUCTIONS TO VISIBILITY.

* THESE STATIONS ARE NOT UNDER NWS QUALITY CONTROL. THEY ALSO MAY NOT
  REPORT WEATHER SUCH AS PRECIPITATION OR FOG.

ILZ001-002-007-009-015-016-024-230200-
NORTHWEST ILLINOIS

CITY           SKY/WX    TMP DP  RH WIND       PRES   REMARKS
MOLINE         CLOUDY    55  49  80 S13       29.80F
STERLING*      CLOUDY    52  46  82 S7        29.82S
SAVANNA*       CLOUDY    49  46  91 SE7       29.80F
$$

ILZ003-004-008-010-011-017-018-230200-
NORTH CENTRAL ILLINOIS

CITY           SKY/WX    TMP DP  RH WIND       PRES   REMARKS
ROCKFORD       CLOUDY    48  45  89 S8        29.84S
FREEPORT*      CLOUDY    49  47  91 S16       29.81F
ROCHELLE*      CLOUDY    49  47  91 S17       29.83F
DE KALB*       CLOUDY    47  45  91 S15       29.84S
PERU*          CLOUDY    53  46  76 S15       29.86F
$$

ILZ005-006-012>014-019>023-230200-
NORTHEAST ILLINOIS

CITY           SKY/WX    TMP DP  RH WIND       PRES   REMARKS
CHICAGO-OHARE  CLOUDY    52  45  77 SW15G24   29.86R
CHICAGO-MIDWAY CLOUDY    53  46  77 SW14G24   29.87F
AURORA         CLOUDY    52  45  77 S12       29.86S
LANSING*       CLOUDY    50  45  84 S12G20    29.90S
JOLIET*        CLOUDY    51  45  79 S14       29.88S
WAUKEGAN       CLOUDY    50  46  86 S12       29.83S
DUPAGE AIRPORT CLOUDY    50  46  86 S13       29.85S
KANKAKEE*      CLOUDY    52  46  81 S14G23    29.92S
WHEELING       MOCLDY    51  46  83 S14       29.87R
MORRIS*        CLOUDY    51  46  83 S15       29.87F
ROMEOVILLE*    CLOUDY    51  44  78 SW21      29.86F
NORTHERLY ISL    N/A     53  44  71 S14         N/A
$$

LMZ740>746-230200-
SOUTHERN LAKE MICHIGAN

STATION/POSITION SKY/WX   TEMP    WIND        PRES    VSBY  WAVE
                          AIR SEA DIR/SP/G                  HT/PER
                          (F)     (DEG/KT/KT) (MB)    (MI)  (FT/S)
SOUTHERN BUOY              46 42  190/ 16/ 17 1011.0R         3/ 5
WAUKEGAN HARBOR            51     220/ 13/ 17   N/A
HARRISON CRIB              52     200/ 28/ 34   N/A
BURNHAM HARBOR             53     210/ 11/ 17   N/A
CALUMET HARBOR             52     190/ 11/ 16 1010.8F
MICHIGAN CITY              52     170/ 18/ 24   N/A
$$

ILZ025>027-034>036-040-047-049-050-058-095>099-230200-
WEST-CENTRAL ILLINOIS

CITY           SKY/WX    TMP DP  RH WIND       PRES   REMARKS
QUINCY         MOCLDY    54  48  80 S12       29.84F
GALESBURG*     CLOUDY    54  48  81 S9        29.84S
MACOMB*        PTCLDY    52  47  83 S13       29.86F
JACKSONVILLE*  CLOUDY    54  49  83 S12G18    29.90F
PITTSFIELD*    CLOUDY    54  48  81 S10G16    29.88F
$$

ILZ028>032-037-038-041>044-048-051>054-059>061-230200-
CENTRAL ILLINOIS

CITY           SKY/WX    TMP DP  RH WIND       PRES   REMARKS
PONTIAC        CLOUDY    52  47  84 S14       29.90F
BLOOMINGTON    LGT RAIN  51  48  89 S15       29.93R
DECATUR        LGT RAIN  53  48  83 S13       29.95S
PEORIA         CLOUDY    56  47  71 S16       29.88S
LACON*         MOCLDY    54  45  73 S9        29.86F
LINCOLN*       CLOUDY    53  48  82 S10G17    29.92R
SPRINGFIELD    CLOUDY    53  47  79 S14G21    29.92S
TAYLORVILLE    LGT RAIN  50  46  87 S13       29.95S
$$

ILZ033-039-045-046-055>057-062-063-230200-
EAST-CENTRAL ILLINOIS

CITY           SKY/WX    TMP DP  RH WIND       PRES   REMARKS
CHAMPAIGN      CLOUDY    51  45  79 S9        29.95F
DANVILLE*      CLOUDY    53  44  73 S14       29.94F
RANTOUL*       LGT RAIN  54  47  78 SW9       29.94F
MATTOON        CLOUDY    53  45  74 S10       29.96S
PARIS*         LGT RAIN  53  46  78 S10       29.99S
$$

ILZ079-100>102-230200-
SOUTHWEST ILLINOIS

CITY           SKY/WX    TMP DP  RH WIND       PRES   REMARKS
BELLEVILLE     LGT RAIN  53  53  99 S10       29.95F
CAHOKIA*       LGT RAIN  55  50  83 S8        29.94F
SPARTA*        DRIZZLE   54  49  82 S7        29.99F
$$

ILZ064>066-069>071-074>076-080>082-084>086-088>090-092>094-230200-
SOUTH-CENTRAL ILLINOIS

CITY           SKY/WX    TMP DP  RH WIND       PRES   REMARKS
CARBONDALE     CLOUDY    59  40  49 S13       30.01R
CAIRO*         CLOUDY    62  40  44 S9        30.04S
EFFINGHAM*     CLOUDY    57  40  53 S9        29.98S
MARION         CLOUDY    61  41  48 S12       30.01S
MT. VERNON     CLOUDY    54  43  66 S5        30.01S
CENTRALIA*     DRIZZLE   53  45  74 S9        29.98S
SALEM*         LGT RAIN  57  46  67 S7        29.99S
METROPOLIS*    CLOUDY    62  38  41 S6        30.03S
$$

ILZ067-068-072-073-078-083-087-091-230200-
SOUTHEAST ILLINOIS

CITY           SKY/WX    TMP DP  RH WIND       PRES   REMARKS
LAWRENCEVILLE  CLOUDY    53  43  68 S7        30.02F
FLORA*         MOCLDY    54  42  65 S8        30.00S
FAIRFIELD*     CLOUDY    54  43  66 SE3       30.00F
HARRISBURG*    CLOUDY    58  40  50 S9        30.03S
ROBINSON*      CLOUDY    56  42  59 S9        30.02S
CARMI*         CLOUDY    55  44  67 S6        30.01F
$$

ABBREVIATIONS USED IN REMARKS
   TC - TEMPERATURE IN CELSIUS
  WCI - WIND CHILL INDEX
   HX - HEAT INDEX
  VSB - VISIBILITY
$$



USA.gov is the U.S. government's official web portal to all federal, state and local government web resources and services.